Weather History for Cartersville, GA

Change the Weather History Date:

Thursday, December 13, 2012

  Actual Average Record
Temperature  
Mean Temperature 44 °F 43 °F  
Max Temperature 55 °F 54 °F 70 °F (2007)
Min Temperature 32 °F 32 °F 18 °F (2010)
Degree Days  
Heating Degree Days 21 22  
Month to date heating degree days 270  
Since 1 July heating degree days 879  
Moisture  
Dew Point 34 °F    
Average Humidity 74    
Maximum Humidity 100    
Minimum Humidity 49    
Precipitation  
Precipitation 0.00 in 0.15 in 0.90 in (1985)
Month to date precipitation 2.12  
Snow  
Snow 0.00 in - - ()
Month to date snowfall  
Since 1 July snowfall  
Snow Depth -    
Sea Level Pressure  
Sea Level Pressure 30.32 in    
Wind  
Wind Speed 2 mph (NNE)    
Max Wind Speed 5 mph    
Max Gust Speed -    
Visibility 10 miles    
Events      
T = Trace of Precipitation, MM = Missing Value Source: NWS Daily Summary

Daily Weather History Graph

Daily Weather History Graph

Search for Another Location

Airport:

Trip Planner

Search our weather history database for the weather conditions in past years. The results will help you decide how hot, cold, wet, or windy it might be!

Date:

Astronomy

Dec. 13, 2012 Rise Set
Actual Time 7:36 AM EST 5:30 PM EST
Civil Twilight 7:08 AM EST 5:58 PM EST
Nautical Twilight 6:37 AM EST 6:30 PM EST
Astronomical Twilight 6:07 AM EST 7:00 PM EST
Moon 7:45 AM EST (12/13) 6:11 PM EST (12/13)
Length of Visible Light 10h 49m
Length of Day
9h 54m
Waxing Crescent, 0% of the Moon is Illuminated
Dec 13
Waxing Crescent
Dec 20
First Quarter
Dec 28
Full
Jan 4
Last Quarter
Jan 11
New

Hourly Weather History & Observations

Time (EST) Temp. Windchill Dew Point Humidity Pressure Visibility Wind Dir Wind Speed Gust Speed Precip Events Conditions
12:53 AM 42.1 °F 40.2 °F 33.1 °F 70% 30.27 in 10.0 mi NNE 3.5 mph - N/A   Overcast
1:53 AM 41.0 °F 39.0 °F 33.1 °F 73% 30.27 in 10.0 mi North 3.5 mph - N/A   Overcast
2:53 AM 41.0 °F 38.0 °F 33.1 °F 73% 30.29 in 10.0 mi North 4.6 mph - N/A   Overcast
3:53 AM 41.0 °F 39.0 °F 32.0 °F 70% 30.32 in 10.0 mi Variable 3.5 mph - N/A   Overcast
4:53 AM 39.9 °F 37.8 °F 33.1 °F 77% 30.30 in 10.0 mi NE 3.5 mph - N/A   Overcast
5:53 AM 37.9 °F - 33.1 °F 83% 30.31 in 10.0 mi Calm Calm - N/A   Partly Cloudy
6:53 AM 36.0 °F - 30.9 °F 82% 30.33 in 10.0 mi Calm Calm - N/A   Clear
7:53 AM 33.1 °F - 30.9 °F 92% 30.36 in 9.0 mi Calm Calm - N/A   Clear
8:53 AM 37.0 °F 34.5 °F 30.0 °F 76% 30.37 in 10.0 mi North 3.5 mph - N/A   Clear
9:53 AM 41.0 °F 39.0 °F 32.0 °F 70% 30.37 in 10.0 mi NE 3.5 mph - N/A   Clear
10:53 AM 45.0 °F - 35.1 °F 68% 30.38 in 10.0 mi Calm Calm - N/A   Clear
11:53 AM 50.0 °F - 36.0 °F 59% 30.36 in 10.0 mi Calm Calm - N/A   Clear
12:53 PM 52.0 °F - 37.0 °F 57% 30.34 in 10.0 mi Calm Calm - N/A   Clear
1:53 PM 54.0 °F - 37.9 °F 55% 30.31 in 10.0 mi Calm Calm - N/A   Clear
2:53 PM 55.0 °F - 37.0 °F 51% 30.29 in 10.0 mi North 3.5 mph - N/A   Clear
3:53 PM 55.9 °F - 37.0 °F 49% 30.29 in 10.0 mi Calm Calm - N/A   Clear
4:53 PM 54.0 °F - 36.0 °F 51% 30.29 in 10.0 mi Calm Calm - N/A   Clear
8:53 PM 36.0 °F - 35.1 °F 97% 30.33 in 10.0 mi Calm Calm - N/A   Clear
9:53 PM 35.1 °F - 34.0 °F 96% 30.34 in 8.0 mi Calm Calm - N/A   Clear
10:53 PM 33.1 °F - 32.0 °F 96% 30.35 in 7.0 mi Calm Calm - N/A   Clear
11:53 PM 32.0 °F - 32.0 °F 100% 30.34 in 7.0 mi Calm Calm - N/A   Clear